Annette Island, AK

6:00 PM AKST on February 12, 2016 (GMT -0900)
Annette Island | | Change Station
CLOSE
Current Station
Airport
Location: Annette Island,
Elevation: 112 ft
Nearby Weather Stations

Elev 112 ft 55.04 °N, 131.57 °W | Updated 7 minutes ago

Scattered Clouds
Scattered Clouds
45 °F
Feels Like 42 °F
N
6
Wind Variable Wind from ESE

Today
High -- | Low -- °F
--% Chance of Precip.
Yesterday
High -- | Low -- °F
Precip. -- in
Pressure 29.81 in
Visibility 10.0 miles
Clouds Scattered Clouds 4000 ft
Windchill 42 °F
Dew Point 41 °F
Humidity 86%
Rainfall 0.23 in
Snow Depth Not available.
7:15 AM 4:45 PM
Waxing Crescent, 26% visible
METAR PANT 130253Z 12005KT 10SM SCT040 07/05 A2980 RMK AO2 SLP093 T00720050 58003
Pressure 29.81 in
Visibility 10.0 miles
Clouds Scattered Clouds 4000 ft
Windchill 42 °F
Dew Point 41 °F
Humidity 86%
Rainfall 0.23 in
Snow Depth Not available.
7:15 AM 4:45 PM
Waxing Crescent, 26% visible
METAR PANT 130253Z 12005KT 10SM SCT040 07/05 A2980 RMK AO2 SLP093 T00720050 58003

10-Day Weather Forecast

Almanac

Astronomy

Feb. 12, 2016 Rise Set
Actual Time
Civil Twilight
Nautical Twilight
Astronomical Twilight
Moon
Length of Visible Light
Length of Day
Tomorrow will be .
, % of the Moon is Illuminated

Today's Extremes

State Highs State Lows

Community

WunderPhotos

Upload Photos

1,892,464 photos uploaded!

WunderBlog® & News

Nearby

Air Quality

  Air Quality AQ Index Pollutant
Not available.

Snow Depth

Station Depth Elevation

Earthquake Activity

City Distance Mag. Time & Date
Minimum magnitude displayed is 2.5.

Coastal Water Temperatures

Place Temperature

Stations

Nearby Weather Stations

Station Location Temp. Windchill Dew Point Humidity Wind Precip. Elev Updated Type
                   

Watches & Warnings

There are currently no watches in effect.